Printer-friendly version

IAU Minor Planet Center

Minor Planet Center

(63) Ausonia

Orbital Elements

The following orbital elements are taken from MPC 35405:
   (63) Ausonia
Epoch 2007 Apr. 10.0 TT = JDT 2454200.5                 Goffin
M  49.98882              (2000.0)            P               Q
n   0.26589155     Peri.  295.63634     +0.06359264     +0.99725560
a   2.3951517      Node   337.91055     -0.87566663     +0.03753659
e   0.1258912      Incl.    5.78596     -0.47871069     +0.06381429
P   3.71           H    7.55          G   0.25           U   0
From 940 observations at 76 oppositions, 1861-1998, mean residual 0".53.
An explanation of the orbital elements is available.

These orbital elements are also available in forms suitable for loading into a number of popular planetarium-type software programs.


Ephemeris

The following ephemeris is at intervals of five days. A daily ephemeris covering the same time interval is also available.

Personalized ephemerides for this object (and others) can be generated using the MPES.

Date    TT    R. A. (2000) Decl.     Delta      r     Elong.  Phase     V
 
2007 08 09    02 04.18   +16 34.4    1.977    2.392   101.3    24.6    11.9
2007 08 14    02 06.93   +17 04.9    1.923    2.399   105.3    24.0    11.9
2007 08 19    02 09.07   +17 32.7    1.871    2.406   109.4    23.4    11.8
2007 08 24    02 10.57   +17 57.7    1.821    2.413   113.8    22.6    11.7
2007 08 29    02 11.38   +18 19.8    1.772    2.420   118.2    21.6    11.6
2007 09 03    02 11.48   +18 38.6    1.726    2.427   122.9    20.4    11.6
2007 09 08    02 10.83   +18 54.0    1.682    2.433   127.8    19.1    11.5
2007 09 13    02 09.42   +19 05.5    1.642    2.440   132.8    17.6    11.4
2007 09 18    02 07.25   +19 13.0    1.606    2.447   138.0    15.9    11.3
2007 09 23    02 04.36   +19 16.2    1.574    2.454   143.4    14.1    11.2
2007 09 28    02 00.81   +19 15.1    1.547    2.460   149.0    12.1    11.1
2007 10 03    01 56.67   +19 09.5    1.525    2.467   154.6    10.0    11.0
2007 10 08    01 52.03   +18 59.5    1.510    2.474   160.2     7.8    10.9
2007 10 13    01 47.05   +18 45.3    1.501    2.480   165.7     5.7    10.8
2007 10 18    01 41.86   +18 27.4    1.498    2.487   170.4     3.8    10.7
2007 10 23    01 36.65   +18 06.6    1.503    2.493   172.5     3.0    10.7
2007 10 28    01 31.57   +17 43.6    1.514    2.499   170.1     3.9    10.8
2007 11 02    01 26.78   +17 19.3    1.533    2.506   165.3     5.8    10.9
2007 11 07    01 22.41   +16 54.7    1.558    2.512   159.8     7.8    11.0
2007 11 12    01 18.58   +16 30.6    1.590    2.518   154.2     9.9    11.1
2007 11 17    01 15.38   +16 08.1    1.627    2.524   148.5    11.8    11.2
2007 11 22    01 12.87   +15 47.9    1.670    2.530   143.0    13.6    11.4
2007 11 27    01 11.08   +15 30.5    1.719    2.536   137.5    15.2    11.5
2007 12 02    01 10.02   +15 16.4    1.772    2.542   132.2    16.7    11.6
2007 12 07    01 09.68   +15 05.8    1.829    2.547   127.1    18.0    11.7
2007 12 12    01 10.06   +14 58.9    1.889    2.553   122.1    19.1    11.8
2007 12 17    01 11.11   +14 55.8    1.953    2.558   117.3    20.0    11.9

Back to Bright Minor Planets

Astronomical Headlines Index

MPC


Valid HTML 4.01!